Theta_e
290 290 289 290 290 290 290 290 290 290 290 290 290 290 290 290 291 291 292 291 290 290 290 289 290 289 290 290 285 289 287 286 285 287 290 292 291 291 294 297 297 298 299 298 299 300 301 297 297 304 303 298 299 300
290 289 290 289 289 290 290 290 290 290 290 290 290 290 291 291 290 290 292 291 290 290 290 289 289 289 288 288 290 290 289 287 289 286 289 289 289 289 292 292 296 300 297 296 300 301 299 297 299 301 300 298 299 301
288 289 289 289 290 290 290 290 291 290 290 290 291 291 291 291 291 291 290 290 290 289 289 289 289 289 288 288 288 289 289 289 289 290 287 290 290 290 285 294 295 294 293 295 299 299 299 299 300 301 300 299 300 300
289 288 289 289 289 289 291 291 291 290 290 290 291 291 291 291 290 290 290 290 289 289 288 288 288 288 288 288 288 288 288 288 288 289 288 285 286 289 290 292 292 292 293 294 293 297 298 300 300 300 301 300 300 300
288 288 289 290 289 290 291 291 291 291 291 292 292 293 291 291 290 290 289 289 289 289 289 289 289 289 289 289 288 288 288 288 288 286 286 284 288 288 288 288 290 292 293 294 298 296 295 297 296 296 299 300 302 300
288 289 290 288 290 289 290 291 290 291 290 290 291 291 291 290 290 289 289 289 288 290 289 288 288 288 288 288 288 289 289 289 288 289 287 288 288 290 287 286 290 292 293 293 296 296 295 294 294 297 299 301 302 302
288 289 287 289 289 289 291 290 289 290 289 289 289 290 289 289 289 289 289 289 289 289 289 284 281 289 289 289 288 289 289 289 288 288 287 287 289 290 281 289 290 290 292 294 293 292 292 294 295 298 299 300 300 303
288 288 289 289 289 289 291 291 290 290 289 288 288 288 288 288 289 289 289 288 288 289 288 280 281 284 288 287 288 288 289 289 289 288 288 285 286 288 288 289 291 292 292 291 291 292 293 294 296 298 297 299 301 302
288 286 289 289 289 289 287 287 288 289 289 288 288 289 288 288 287 287 288 287 288 288 285 283 280 280 287 288 288 289 289 285 288 288 286 288 289 289 287 288 290 291 290 290 291 292 293 294 296 299 300 299 300 300
288 288 289 289 289 289 285 285 286 287 287 286 286 286 286 286 286 287 287 286 287 288 288 278 287 285 288 288 286 287 288 289 289 287 288 289 288 289 289 290 291 291 291 291 291 292 292 296 296 295 300 298 298 299
285 288 289 288 289 289 286 285 285 285 285 285 285 285 284 285 286 286 286 283 283 276 287 287 288 283 288 286 288 288 285 279 288 283 286 281 279 288 289 289 290 290 290 290 290 291 292 294 294 296 300 298 299 298
285 288 287 289 289 289 287 284 283 283 283 282 282 283 285 284 285 276 270 275 274 278 284 281 287 287 286 287 287 288 286 280 282 277 279 278 287 283 286 286 288 288 288 290 291 292 292 294 295 297 298 297 295 295
285 287 288 288 289 288 287 283 283 283 284 283 282 282 282 281 275 274 273 275 275 279 287 287 280 286 286 287 287 288 287 284 275 276 280 284 279 279 280 281 283 284 286 287 291 293 294 296 295 294 293 292 291 290
287 285 287 286 287 288 288 285 285 285 284 282 282 275 273 271 270 271 273 274 285 286 285 285 285 281 286 285 288 287 283 281 278 280 282 277 277 277 278 278 279 281 284 287 289 292 294 293 291 291 290 288 286 286
288 286 285 286 286 288 288 287 286 285 284 283 281 275 270 277 281 283 284 284 284 283 284 284 285 285 285 287 283 281 284 284 285 286 283 279 276 275 276 277 278 278 280 282 285 286 287 286 286 285 284 284 284 284
287 288 286 285 289 288 288 288 287 285 284 283 281 277 277 273 274 282 283 283 283 284 284 285 283 284 284 284 284 286 285 288 284 280 278 276 275 275 275 276 275 275 276 279 280 281 282 282 282 281 281 282 282 282
286 287 287 285 285 287 287 287 286 284 283 282 279 281 282 282 281 282 282 283 284 283 283 284 287 289 288 289 287 281 280 279 276 276 275 274 273 273 273 274 274 274 275 277 278 279 278 278 279 280 281 279 280 280
286 286 287 288 287 285 286 286 285 284 282 282 278 282 282 282 282 282 282 283 283 284 286 286 284 285 286 285 283 277 276 274 274 274 274 273 273 273 273 273 274 274 275 275 275 275 276 277 279 278 277 277 278 278
286 286 286 287 287 286 286 285 284 283 283 283 283 282 282 282 283 283 283 283 283 283 283 284 286 282 280 277 274 273 272 271 271 272 273 273 273 273 273 273 273 273 274 274 275 275 276 277 277 276 276 277 277 276
285 286 286 287 288 286 285 285 283 283 281 283 283 283 283 283 283 283 284 284 283 283 282 280 278 275 274 273 271 271 271 271 271 272 273 273 273 273 273 273 273 273 274 274 274 274 275 275 275 275 276 276 276 275
285 285 284 283 286 286 286 284 283 283 284 284 284 284 284 284 284 284 283 282 281 274 279 274 273 273 272 272 272 272 271 271 270 271 272 272 272 272 273 273 273 273 274 274 275 274 275 275 274 275 276 276 275 275
284 284 283 285 286 286 285 284 283 283 283 284 284 284 283 279 282 282 280 279 273 272 272 273 272 274 273 272 272 272 271 270 271 271 272 272 272 272 273 273 273 273 273 273 274 274 274 274 275 275 276 275 274 274
283 284 285 287 287 285 285 284 283 283 281 277 284 278 275 277 281 280 275 273 272 270 272 272 272 273 272 272 272 272 272 272 272 272 272 272 272 272 272 272 273 274 274 273 274 275 274 274 275 275 274 273 272 271
284 285 285 286 286 284 283 283 283 284 284 277 275 274 274 277 280 276 275 271 270 270 272 272 272 273 273 272 271 271 272 271 272 272 271 272 272 272 272 273 273 274 274 274 275 275 275 275 274 272 271 271 272 272
283 281 281 282 281 282 282 281 280 281 277 271 275 273 272 279 272 269 273 269 270 270 270 271 271 271 271 271 271 270 271 271 272 272 271 272 272 272 272 273 273 273 274 275 275 275 274 272 271 271 272 272 271 271
280 277 277 277 278 279 281 283 283 280 277 276 272 274 277 267 272 272 265 269 268 269 269 270 271 271 271 272 273 273 273 272 272 273 272 271 273 274 274 275 274 273 274 276 275 273 272 271 271 271 271 269 269 269
278 275 273 274 274 275 276 276 276 278 278 273 267 269 268 274 270 264 269 268 268 269 270 270 271 271 272 273 273 274 274 274 274 274 274 274 275 275 276 276 276 275 274 273 272 273 273 272 271 270 270 269 268 268
271 272 274 272 272 272 274 274 275 277 272 269 267 270 272 269 266 268 269 268 269 270 271 271 271 271 271 271 272 273 273 274 274 274 275 275 275 275 276 276 274 272 271 271 272 272 271 271 270 270 269 269 269 268
271 271 271 272 271 270 269 271 270 269 269 269 264 262 262 267 267 268 268 269 270 271 271 271 271 271 271 270 271 272 272 272 273 273 275 275 275 274 274 272 272 271 272 271 270 270 270 270 270 269 269 269 269 269
271 271 272 272 270 268 269 269 269 268 268 268 268 267 267 267 268 269 269 270 270 271 272 271 271 272 272 272 272 273 273 274 275 276 277 276 275 273 272 272 273 273 272 272 271 270 270 269 269 269 269 270 270 271
271 271 272 274 272 270 269 268 268 268 268 268 268 268 268 268 269 270 270 271 271 272 272 272 273 273 274 273 274 274 275 276 276 276 275 274 274 273 273 272 272 272 271 271 270 270 269 269 269 270 270 271 271 271
271 272 274 275 271 270 270 270 270 271 270 270 270 269 269 269 269 269 270 271 272 272 273 273 273 274 274 274 275 276 277 277 276 274 273 274 274 273 272 272 272 271 270 270 270 270 269 270 270 270 271 271 271 271
272 273 274 274 271 271 271 272 272 272 272 272 271 271 271 270 270 270 270 271 272 273 273 273 274 275 275 276 277 277 276 274 273 273 273 273 273 273 272 271 271 270 270 270 270 270 269 269 270 270 270 270 270 270
Wind_Speed
23 24 22 24 26 27 29 32 35 38 40 41 41 41 39 38 36 35 37 36 28 28 25 26 28 23 9 17 4 6 1 4 3 2 3 3 3 1 5 6 5 8 7 4 2 2 8 8 4 6 3 1 2 3
23 21 23 25 26 29 32 35 39 41 43 45 45 43 41 38 35 33 38 32 27 33 22 27 31 31 29 21 19 13 9 8 5 1 2 3 7 5 4 4 1 4 2 3 8 7 1 13 2 11 1 2 1 4
20 20 24 24 27 30 35 35 41 45 48 47 45 43 39 36 34 30 28 27 26 14 12 18 26 28 22 28 25 13 12 14 7 7 2 2 6 0 2 4 4 10 10 4 3 4 5 10 16 17 8 3 6 9
18 22 21 25 27 31 33 37 42 44 46 50 47 38 34 32 27 26 24 22 19 8 5 8 16 25 26 24 30 29 28 18 19 7 5 3 3 7 5 5 11 6 5 7 9 13 12 14 13 18 20 16 13 9
20 18 21 25 26 28 30 35 37 37 43 46 35 29 20 19 17 17 17 19 18 16 4 4 9 18 13 13 22 24 29 30 24 5 3 4 5 5 5 3 10 5 9 6 4 7 5 10 35 38 29 28 27 18
16 17 21 22 23 22 25 28 30 29 32 32 26 9 4 6 9 10 4 14 19 20 4 1 7 10 9 16 21 23 28 29 22 7 5 9 22 8 4 8 6 17 25 23 7 19 30 35 41 30 21 18 17 17
14 17 19 18 16 18 19 21 23 23 23 23 20 15 10 5 7 5 2 1 4 15 4 1 4 2 5 16 24 24 22 18 18 10 7 10 10 14 3 15 14 24 29 29 32 34 31 29 22 24 18 7 12 9
13 17 13 13 12 13 14 16 18 18 18 18 16 11 8 6 5 3 4 2 5 2 2 1 4 3 6 6 6 9 9 14 12 10 5 5 8 10 9 16 13 22 31 33 42 38 35 35 32 29 26 16 12 7
14 13 15 10 11 13 12 12 11 10 11 12 13 9 5 4 3 2 1 4 7 5 2 3 3 4 4 4 7 7 10 3 7 6 7 7 6 7 8 14 26 36 32 35 33 32 34 33 33 26 23 25 26 22
14 12 14 9 10 12 12 12 11 10 8 10 11 4 3 3 1 3 2 1 3 4 4 2 3 2 4 2 3 3 8 4 4 7 8 7 10 31 33 33 31 37 39 35 25 31 29 21 23 30 24 18 20 21
10 10 10 8 9 11 11 12 12 12 9 7 4 4 3 2 1 1 1 2 1 3 4 4 4 2 4 1 3 6 3 2 2 5 7 4 4 15 38 43 43 40 38 40 39 42 37 33 32 25 13 6 8 10
10 9 10 8 8 9 10 10 11 11 10 9 7 6 2 1 0 4 2 3 3 4 3 3 6 6 4 7 5 5 3 1 5 2 3 3 10 6 5 13 20 28 33 37 35 35 29 27 26 18 14 14 11 9
10 8 8 7 9 10 9 9 10 12 15 7 3 2 2 2 5 4 3 4 2 3 5 5 3 5 4 6 3 4 4 5 1 2 5 6 4 15 17 19 20 19 21 21 19 19 18 17 16 13 10 7 6 5
9 11 10 9 11 12 8 7 8 11 7 4 1 4 3 4 4 4 4 4 5 6 12 15 6 3 8 4 4 3 4 2 2 1 6 2 11 20 19 19 19 18 12 10 12 15 16 15 12 9 6 4 2 2
8 10 11 10 9 11 8 6 9 10 4 3 1 3 4 7 8 9 10 7 15 15 15 5 9 6 2 4 3 1 3 4 3 2 2 6 19 18 17 15 14 12 6 4 8 12 13 12 10 9 8 7 7 8
11 10 8 5 4 5 6 8 10 10 4 4 4 1 3 2 5 6 12 15 10 9 11 7 3 2 5 3 1 6 3 5 0 3 10 20 21 17 13 10 7 4 2 7 9 11 12 12 12 13 14 13 13 12
9 7 5 4 7 8 7 6 4 4 4 4 4 8 10 11 11 12 8 9 7 6 2 2 4 5 3 3 1 4 4 2 7 10 14 16 14 12 7 5 3 5 10 13 14 15 17 17 18 18 19 19 17 17
10 9 9 10 8 9 8 5 2 4 5 8 2 5 6 10 11 13 9 9 4 3 2 3 5 3 3 3 2 2 6 16 12 14 12 13 9 8 6 7 9 12 16 19 20 20 19 20 21 23 23 21 22 22
10 10 9 13 12 9 4 5 6 4 9 6 8 12 11 12 14 16 13 11 12 10 5 4 2 2 2 3 3 8 11 12 17 14 9 6 4 6 5 7 10 13 15 17 17 19 19 20 22 22 22 22 25 25
10 12 13 10 12 7 5 4 7 5 4 3 6 7 7 8 11 14 13 9 7 2 1 1 1 2 4 9 9 11 13 10 10 6 4 5 6 6 8 10 13 15 17 19 20 21 22 24 23 23 23 25 26 27
14 11 12 11 16 15 5 6 8 5 4 3 3 6 5 8 7 5 4 7 1 2 1 5 3 6 8 9 11 12 9 6 4 2 1 3 4 6 8 10 12 15 18 21 23 24 25 27 26 25 25 27 28 28
18 14 7 6 11 10 7 12 5 5 4 2 2 3 5 4 4 3 7 3 2 3 5 6 8 10 9 11 12 11 8 6 4 4 3 4 6 9 11 12 15 19 22 24 25 27 27 27 27 27 28 29 28 28
11 5 5 7 8 12 3 13 5 6 1 2 1 3 3 3 2 5 3 2 2 6 8 10 10 7 8 10 9 9 10 8 9 9 9 11 11 12 14 15 17 21 24 25 26 28 30 28 28 28 28 28 27 27
6 4 4 5 9 4 8 5 6 5 3 2 3 2 3 4 4 3 2 2 3 6 7 9 10 6 7 10 12 11 8 6 7 10 10 12 16 17 16 18 19 22 24 26 27 28 28 28 26 26 26 25 24 24
3 3 2 3 1 3 4 4 4 3 3 3 3 2 2 3 2 2 1 3 3 6 8 8 7 9 9 7 7 9 10 10 9 14 14 13 16 19 21 22 22 22 22 25 27 27 27 26 25 24 23 21 21 21
3 1 1 2 2 0 1 4 4 3 3 2 2 2 1 3 1 4 2 5 4 5 9 9 9 7 8 10 9 7 8 9 7 10 14 13 13 16 21 22 23 22 21 21 24 26 27 26 24 23 22 21 19 18
2 1 3 4 2 2 2 2 2 1 2 3 3 1 3 1 4 2 2 4 4 6 6 5 5 6 7 8 6 6 5 5 6 10 14 14 14 15 16 20 23 25 22 20 21 21 23 23 21 20 20 20 19 18
3 4 2 2 3 2 1 1 2 3 2 2 1 2 6 4 3 2 3 4 4 2 2 2 3 4 7 9 10 11 13 13 13 13 14 16 16 17 20 24 25 25 24 22 20 19 18 18 18 18 17 18 19 20
2 3 2 2 2 2 1 0 1 2 3 3 3 1 1 1 2 2 3 2 1 3 3 4 5 7 10 11 9 8 8 8 10 14 19 24 24 24 24 24 26 25 24 23 21 18 17 17 16 16 18 19 21 20
2 4 1 2 2 1 1 1 3 4 4 3 3 3 3 1 3 2 1 2 3 4 3 3 4 6 6 5 4 3 5 8 11 15 22 25 26 26 25 23 22 20 19 18 18 18 17 16 17 18 19 20 19 16
3 1 1 2 3 3 6 8 10 9 5 3 4 2 3 3 3 4 2 2 3 3 2 2 3 4 3 3 5 9 11 13 15 16 18 22 24 24 23 20 18 17 17 16 17 17 16 16 16 16 17 17 16 14
1 1 0 2 2 9 8 2 3 3 3 2 3 2 3 1 1 1 1 3 3 3 2 3 4 5 5 8 10 10 14 16 19 22 21 23 24 23 21 19 18 17 17 17 16 15 14 14 15 15 14 14 13 13
2 0 1 5 5 6 6 5 4 3 2 1 1 3 2 1 2 2 1 3 4 4 5 6 7 8 11 12 15 18 20 24 24 23 22 21 21 20 19 19 18 16 15 15 14 13 13 13 13 13 12 11 10 10
Wind_Direction
298 301 306 305 308 306 305 301 299 299 298 292 289 287 284 281 278 272 273 269 261 256 258 247 231 210 191 200 174 229 9 278 11 192 226 292 225 300 286 225 240 194 160 188 145 138 265 162 102 179 216 354 321 305
295 303 305 304 307 307 311 309 303 301 297 292 287 282 279 276 276 270 260 261 262 250 255 233 226 235 240 242 216 218 211 181 224 122 55 338 306 287 281 281 248 238 261 202 184 211 242 196 258 223 322 296 277 120
299 304 302 309 312 315 310 312 309 307 306 301 290 280 275 268 267 261 263 259 262 236 263 203 214 230 224 222 235 220 230 225 235 243 209 237 269 260 199 243 317 346 16 317 350 273 257 256 241 254 242 247 159 138
302 301 312 313 317 315 319 319 318 320 316 307 291 278 267 260 254 248 250 257 254 231 199 241 239 239 239 232 232 231 242 246 258 249 205 203 206 212 272 281 297 274 331 321 293 290 286 268 256 313 270 234 200 191
297 309 314 315 318 325 326 330 332 333 334 330 311 256 258 245 246 236 242 243 246 240 214 237 245 239 241 241 233 232 238 244 244 231 205 228 248 255 264 269 263 219 252 253 282 343 341 301 321 323 313 243 223 226
300 309 312 322 330 327 338 340 347 351 358 13 36 75 191 209 198 198 221 247 249 213 258 176 291 273 259 244 239 232 228 235 223 215 203 221 229 220 267 258 229 256 270 249 254 291 302 300 308 314 298 277 229 218
301 310 315 329 326 332 344 348 359 6 16 27 47 60 73 106 150 151 177 28 191 201 164 265 297 285 270 236 234 232 242 222 220 229 216 234 242 226 229 261 256 274 268 269 282 299 295 289 288 305 334 283 215 193
299 305 323 316 318 330 358 5 8 14 21 26 33 51 77 102 126 184 225 64 89 151 189 138 277 338 205 177 195 206 211 219 218 219 227 206 250 202 243 254 248 258 262 267 275 280 281 291 298 299 289 294 259 268
298 306 314 302 299 313 331 345 355 11 24 25 21 27 31 64 72 64 344 230 195 210 218 166 153 260 206 216 194 197 205 192 219 215 225 203 244 215 226 223 238 252 253 263 271 281 287 289 293 306 297 275 266 293
300 306 314 298 281 298 316 330 331 335 336 331 321 324 24 3 93 152 238 85 177 212 230 193 228 260 193 235 263 224 201 206 221 224 161 209 237 242 246 253 259 260 262 267 272 281 287 291 305 314 308 280 254 260
292 304 306 293 276 287 325 323 324 332 332 332 322 342 340 346 335 262 230 93 316 338 217 226 236 217 202 170 234 230 213 228 230 251 178 218 252 234 239 245 253 265 272 273 271 273 275 276 294 294 285 246 229 244
279 285 317 301 252 284 319 319 325 337 340 320 309 294 274 296 3 81 266 322 91 230 232 174 224 223 262 240 206 228 230 60 217 147 120 249 245 54 289 274 265 266 270 272 272 271 267 273 274 254 246 253 254 266
274 276 291 299 266 280 302 318 333 340 335 314 284 271 336 344 21 105 270 307 319 242 222 220 259 221 248 248 242 237 227 234 17 69 213 240 46 346 330 314 303 294 281 275 269 252 248 249 240 231 231 233 258 278
289 277 282 283 302 248 272 310 330 339 330 294 321 309 132 307 244 191 195 206 252 251 290 291 257 202 214 235 228 244 239 69 8 349 230 292 358 339 329 317 310 307 292 266 230 218 210 207 201 201 215 225 234 200
293 290 282 287 279 238 248 298 323 333 298 270 179 248 228 235 252 252 260 270 290 300 294 285 263 229 230 253 204 17 312 253 220 289 348 1 340 334 329 326 318 308 280 251 211 205 199 191 181 164 146 140 133 122
267 295 298 274 220 240 281 287 318 327 245 242 238 342 226 19 289 261 262 270 303 281 304 253 251 242 230 214 141 227 196 212 23 360 341 327 327 330 334 333 325 329 160 151 146 156 157 154 150 137 128 124 123 118
263 274 267 254 266 260 268 286 318 256 248 240 255 241 251 268 259 284 298 304 295 291 227 290 249 232 287 229 226 9 8 13 336 322 327 333 333 339 358 358 61 110 123 126 127 129 131 130 128 127 119 112 113 111
266 266 275 286 259 259 274 222 227 255 256 249 222 264 245 258 280 289 286 296 299 253 248 249 304 293 326 334 4 25 323 318 316 322 330 351 11 30 58 91 108 120 123 127 129 126 127 131 124 112 111 111 110 107
269 275 269 275 267 219 205 209 193 240 246 273 268 280 280 285 286 288 294 303 292 268 267 283 277 317 310 39 357 319 303 318 316 324 330 346 32 55 83 110 127 130 129 127 129 131 126 119 113 114 115 118 112 110
272 260 272 280 256 190 196 208 204 238 257 271 277 277 288 283 285 292 298 304 318 240 178 62 69 308 311 315 323 308 319 323 320 326 45 52 82 114 113 121 122 129 131 131 126 121 119 116 115 117 117 113 111 107
279 287 286 257 237 229 236 209 209 230 252 250 296 296 293 293 285 296 300 325 345 38 307 89 109 315 337 343 345 349 356 358 349 220 279 77 96 122 127 127 132 129 125 123 121 120 120 117 117 118 117 111 107 106
290 295 277 216 210 208 215 195 211 186 225 257 232 260 309 316 304 317 319 353 35 14 349 352 1 351 5 15 13 9 19 35 68 99 137 151 127 119 118 124 134 127 125 123 123 119 115 116 118 116 113 109 108 106
277 245 216 221 207 195 206 172 163 203 149 264 137 8 317 292 288 323 56 36 17 7 359 0 13 37 49 31 27 30 41 48 72 86 105 118 120 123 126 129 131 128 124 121 121 120 118 120 119 117 115 114 112 109
223 228 227 222 206 165 152 166 171 175 187 80 111 287 282 264 321 34 270 345 32 10 4 15 29 56 55 46 41 45 52 55 81 96 101 118 117 114 119 121 125 124 122 122 123 120 119 119 118 116 115 114 112 108
214 244 249 219 179 143 157 160 162 153 202 201 117 276 271 257 355 326 244 302 28 17 15 21 31 46 54 62 50 48 58 72 87 103 103 110 116 119 119 119 120 121 124 126 123 123 120 120 119 117 115 112 109 107
211 311 43 11 51 89 88 169 172 155 129 129 217 269 178 100 84 246 253 329 354 4 3 17 29 30 34 40 41 60 69 80 87 101 105 109 119 121 121 122 122 121 126 127 126 125 124 124 122 119 114 108 103 102
219 86 43 53 72 90 93 64 79 117 147 170 227 159 91 167 246 264 284 333 354 345 347 12 21 24 31 39 54 52 70 101 110 113 110 115 119 121 124 125 125 120 122 124 123 122 121 122 120 117 113 112 107 101
75 44 84 20 72 49 136 162 184 175 125 184 128 190 179 185 224 270 253 301 356 348 44 55 48 72 77 79 91 95 98 101 108 113 115 117 118 120 123 123 120 118 120 120 118 116 115 114 113 111 109 107 106 104
76 8 93 105 111 65 35 217 151 109 139 178 149 203 198 131 321 294 299 330 115 110 124 107 100 101 100 109 102 91 95 110 124 131 131 125 126 124 125 124 121 123 124 124 121 118 114 110 107 109 110 109 107 106
33 17 116 111 85 259 209 210 183 158 153 136 96 104 115 107 51 79 119 147 148 154 146 118 120 123 111 105 101 100 110 126 138 146 139 133 132 128 126 126 127 127 126 125 123 123 119 114 112 111 110 108 107 105
335 18 145 84 82 52 123 134 130 125 113 108 103 91 121 134 85 67 112 158 168 184 204 188 164 152 132 124 128 122 119 126 131 136 137 131 126 122 122 122 122 121 124 125 120 114 110 109 110 113 115 114 109 104
304 260 308 117 122 163 156 153 135 107 151 146 160 174 168 202 241 210 236 176 190 206 183 166 163 165 157 148 137 130 130 132 130 129 131 131 126 126 126 125 127 129 126 119 113 109 112 114 116 118 117 112 108 103
303 318 133 127 135 179 194 177 185 145 157 164 157 176 183 249 234 204 153 158 168 163 168 164 158 153 148 134 130 134 134 132 131 131 133 132 129 126 127 127 124 124 123 121 117 115 115 116 119 119 117 114 111 108